Regional Weather Roundup
Issued by NWS Sioux Falls, SD

Home | Current Version | Previous Version | Graphics & Text | Print | Product List | Glossary Off
Versions: 1 2 3 4 5 6 7 8 9 10 11 12 13 14 15 16 17 18 19 20 21 22 23 24 25 26 27 28 29 30 31 32 33 34 35 36 37 38 39 40 41 42 43 44 45 46 47 48 49 50

000
ASUS43 KFSD 181202
RWRFSD

WEATHER ROUNDUP FOR SE SOUTH DAKOTA/SW MINNESOTA/NW IOWA
NATIONAL WEATHER SERVICE SIOUX FALLS SD
600 AM CST THU JAN 18 2018

NOTE: "FAIR" INDICATES FEW OR NO CLOUDS BELOW 12,000 FEET WITH NO
SIGNIFICANT WEATHER AND OR OBSTRUCTIONS TO VISIBILITY.


SDZ038>040-050-052>070-181300-
SOUTHEAST SOUTH DAKOTA

CITY           SKY/WX    TMP DP  RH WIND       PRES   REMARKS
BROOKINGS      CLOUDY    16  14  92 S6        29.93F WCI   7
CHAMBERLAIN    CLEAR     26  22  85 SW5       29.93F WCI  20
6HR MIN TEMP:  23; 6HR MAX TEMP:  30;

HURON          CLEAR     20  17  88 S9        29.93F WCI   9
6HR MIN TEMP:  15; 6HR MAX TEMP:  20;

MADISON        FAIR      21  21 100 SW10      29.94F WCI  10
MITCHELL       CLEAR     17  14  88 SE7       29.95F WCI   8
6HR MIN TEMP:  15; 6HR MAX TEMP:  24;

SIOUX FALLS    CLOUDY    13  12  96 CALM      29.98F
6HR MIN TEMP:  13; 6HR MAX TEMP:  21;

WINNER         FAIR      31  21  66 SW9       29.93F WCI  23
YANKTON        CLOUDY    19  16  88 S6        29.99F WCI  11
$$

MNZ071-072-080-081-089-090-097-098-181300-
SOUTHWEST MINNESOTA

CITY           SKY/WX    TMP DP  RH WIND       PRES   REMARKS
FAIRMONT       CLOUDY    23  18  81 SW8       29.97F WCI  14
JACKSON        CLOUDY    23  18  80 SW13      29.96F WCI  11
LUVERNE        CLOUDY    12   9  85 S5        29.99F WCI   4
MARSHALL       CLOUDY    28  21  75 SW16      29.91S WCI  16
6HR MIN TEMP:  27; 6HR MAX TEMP:  32;

MONTEVIDEO     CLOUDY    27  21  80 W5        29.88F WCI  21
PIPESTONE      CLOUDY    16  14  93 SW7       29.94F WCI   6
REDWOOD FALLS  PTCLDY    24  19  81 SW12      29.90F WCI  13
WINDOM         CLOUDY    23   9  54 SW12      29.94F WCI  12
WORTHINGTON    CLOUDY    21  16  81 SW13      29.97F WCI   9
$$

IAZ001>003-012>014-020>022-031-032-NEZ013-014-SDZ071-181300-
NORTHWEST IOWA

CITY           SKY/WX    TMP DP  RH WIND       PRES   REMARKS
CHEROKEE       CLOUDY    18  15  87 SW7       30.03S WCI   9
DENISON        CLOUDY    18  12  79 S8        30.11F WCI   7
ESTHERVILLE    CLOUDY    19  15  84 SW12      29.98F WCI   7
LE MARS        CLOUDY    18  14  86 S7        30.03F WCI   8
ORANGE CITY    CLOUDY    19  18  93 S7        29.99F WCI  10
SHELDON        CLOUDY    18  14  86 CALM      30.00S
SIOUX CITY     CLOUDY    12   9  87 SE6       30.04F WCI   3
6HR MIN TEMP:  10; 6HR MAX TEMP:  19;

SPENCER        CLOUDY    20  14  77 SW10      30.01F WCI   9
6HR MIN TEMP:  17; 6HR MAX TEMP:  22;

STORM LAKE     FLURRIES  19  14  79 SW20      29.99F WCI   4
$$

ABBREVIATIONS USED IN REMARKS
   TC - TEMPERATURE IN CELSIUS
  WCI - WIND CHILL INDEX
   HX - HEAT INDEX
  VSB - VISIBILITY




USA.gov is the U.S. government's official web portal to all federal, state and local government web resources and services.